Prague, Czech Republic

1:35 PM CEST on June 27, 2017 (GMT +0200)
Ruzyne

Weather History for LKPR - October, 2014

Change the Weather History Date:

Monday, October 27, 2014

  Actual Average Record
Temperature  
Mean Temperature 40 °F -  
Max Temperature 46 °F 44 °F 66 °F (2006)
Min Temperature 35 °F 33 °F 24 °F (1997)
Degree Days  
Heating Degree Days 24    
Moisture  
Dew Point 37 °F    
Average Humidity 84    
Maximum Humidity 100    
Minimum Humidity 60    
Precipitation  
Precipitation 0.00 in 0.04 in - ()
Sea Level Pressure  
Sea Level Pressure 30.40 in    
Wind  
Wind Speed 4 mph ()    
Max Wind Speed 8 mph    
Max Gust Speed -    
Visibility 5.9 miles    
Events      
Averages and records for this station are not official NWS values.
T = Trace of Precipitation, MM = Missing Value Source: Averaged Metar Reports

Daily Weather History Graph

Daily Weather History Graph

Search for Another Location

Airport or City:

Trip Planner

Search our weather history database for the weather conditions in past years. The results will help you decide how hot, cold, wet, or windy it might be!

Date:

Astronomy

Oct. 27, 2014 Rise Set
Actual Time 6:44 AM CET 4:48 PM CET
Civil Twilight 6:10 AM CET 5:22 PM CET
Nautical Twilight 5:32 AM CET 6:00 PM CET
Astronomical Twilight 4:55 AM CET 6:37 PM CET
Moon 10:15 AM CET 7:26 PM CET
Length of Visible Light 11h 11m
Length of Day
10h 04m
Waxing Crescent, 13% of the Moon is Illuminated
Oct 27
Waxing Crescent
Oct 31
First Quarter
Nov 6
Full
Nov 14
Last Quarter
Nov 22
New

Hourly Weather History & Observations

Time (CET) Temp. Windchill Dew Point Humidity Pressure Visibility Wind Dir Wind Speed Gust Speed Precip Events Conditions
12:00 AM 44 °F - 41 °F 85% 30.43 in 7 mi SSE 4.5 mph - -   Partly Cloudy
12:00 AM 44.6 °F 43.1 °F 41.0 °F 87% 30.39 in 6.2 mi SE 3.5 mph - N/A   Scattered Clouds
12:30 AM 42.8 °F - 41.0 °F 93% 30.39 in 6.2 mi East 2.3 mph - N/A   Partly Cloudy
1:00 AM 42 °F - 40 °F 88% 30.43 in 6 mi SE 4.5 mph - -   Mist
1:00 AM 41.0 °F 39.0 °F 39.2 °F 93% 30.39 in 5.6 mi East 3.5 mph - N/A   Unknown
1:30 AM 39.2 °F 35.9 °F 37.4 °F 93% 30.39 in 5.0 mi ESE 4.6 mph - N/A   Unknown
2:00 AM 40 °F - 38 °F 92% 30.44 in 3 mi SE 4.5 mph - -   Mist
2:00 AM 41.0 °F 39.0 °F 39.2 °F 93% 30.39 in 3.1 mi ESE 3.5 mph - N/A   Scattered Clouds
2:30 AM 39.2 °F 37.0 °F 39.2 °F 100% 30.39 in 3.7 mi ESE 3.5 mph - N/A   Partly Cloudy
3:00 AM 38 °F - 37 °F 96% 30.44 in 4 mi SSE 4.5 mph - -   Mist
3:00 AM 39.2 °F 35.0 °F 37.4 °F 93% 30.39 in 3.7 mi SSE 5.8 mph - N/A   Unknown
3:30 AM 37.4 °F 33.8 °F 37.4 °F 100% 30.39 in 4.3 mi SSE 4.6 mph - N/A   Unknown
4:00 AM 38 °F - 37 °F 94% 30.45 in 5 mi SSE 4.5 mph - -   Mist
4:00 AM 37.4 °F 32.8 °F 37.4 °F 100% 30.39 in 5.0 mi SSE 5.8 mph - N/A   Unknown
4:30 AM 37.4 °F 32.8 °F 35.6 °F 93% 30.39 in 5.0 mi SSE 5.8 mph - N/A   Unknown
5:00 AM 37 °F - 36 °F 95% 30.45 in 5 mi SSE 4.5 mph - -   Mist
5:00 AM 37.4 °F 32.1 °F 35.6 °F 93% 30.39 in 5.0 mi SSE 6.9 mph - N/A   Unknown
5:30 AM 35.6 °F 30.7 °F 35.6 °F 100% 30.39 in 5.0 mi SSE 5.8 mph - N/A   Unknown
6:00 AM 36 °F - 34 °F 90% 30.46 in 4 mi SSE 4.5 mph - -   Mist
6:00 AM 35.6 °F 30.7 °F 33.8 °F 93% 30.39 in 4.3 mi SE 5.8 mph - N/A   Scattered Clouds
6:30 AM 37.4 °F 32.8 °F 35.6 °F 93% 30.39 in 3.7 mi SSE 5.8 mph - N/A   Mostly Cloudy
7:00 AM 37 °F - 36 °F 94% 30.46 in 4 mi SSE 2.2 mph - -   Mist
7:00 AM 37.4 °F 34.9 °F 35.6 °F 93% 30.39 in 4.3 mi SSE 3.5 mph - N/A   Mostly Cloudy
7:30 AM 37.4 °F 33.8 °F 37.4 °F 100% 30.39 in 4.3 mi SE 4.6 mph - N/A   Mostly Cloudy
8:00 AM 39 °F - 38 °F 95% 30.46 in 4 mi ESE 4.5 mph - -   Mist
8:00 AM 39.2 °F 35.9 °F 37.4 °F 93% 30.42 in 4.3 mi SE 4.6 mph - N/A   Mostly Cloudy
8:30 AM 41.0 °F - 39.2 °F 93% 30.42 in 4.3 mi East 2.3 mph - N/A   Mostly Cloudy
9:00 AM 41 °F - 38 °F 86% 30.46 in 4 mi ESE 4.5 mph - -   Mist
9:00 AM 41.0 °F 39.0 °F 39.2 °F 93% 30.42 in 4.3 mi East 3.5 mph - N/A   Mostly Cloudy
9:30 AM 42.8 °F 41.1 °F 39.2 °F 87% 30.42 in 5.0 mi East 3.5 mph - N/A   Mostly Cloudy
10:00 AM 43 °F - 39 °F 81% 30.46 in 6 mi SE 6.7 mph - -   Mostly Cloudy
10:00 AM 42.8 °F 39.3 °F 39.2 °F 87% 30.42 in 6.2 mi East 5.8 mph - N/A   Mostly Cloudy
10:30 AM 44.6 °F 41.4 °F 39.2 °F 81% 30.42 in 6.2 mi SE 5.8 mph - N/A   Mostly Cloudy
11:00 AM 44 °F - 37 °F 67% 30.46 in 7 mi SSE 6.7 mph - -   Mostly Cloudy
11:00 AM 44.6 °F 41.4 °F 37.4 °F 76% 30.42 in 6.2 mi ESE 5.8 mph - N/A   Mostly Cloudy
11:30 AM 44.6 °F 40.7 °F 37.4 °F 76% 30.42 in 6.2 mi SE 6.9 mph - N/A   Mostly Cloudy
12:00 PM 46 °F - 38 °F 63% 30.45 in 9 mi SSE 6.7 mph - -   Mostly Cloudy
12:00 PM 46.4 °F 42.4 °F 37.4 °F 71% 30.39 in 6.2 mi SSE 8.1 mph - N/A   Mostly Cloudy
12:30 PM 44.6 °F 41.4 °F 37.4 °F 76% 30.39 in 6.2 mi SSE 5.8 mph - N/A   Mostly Cloudy
1:00 PM 44 °F - 36 °F 66% 30.43 in 9 mi SE 6.7 mph - -   Mostly Cloudy
1:00 PM 44.6 °F 41.4 °F 37.4 °F 76% 30.39 in 6.2 mi ESE 5.8 mph - N/A   Mostly Cloudy
1:30 PM 44.6 °F 41.4 °F 35.6 °F 71% 30.39 in 6.2 mi ESE 5.8 mph - N/A   Mostly Cloudy
2:00 PM 46 °F - 36 °F 60% 30.41 in 9 mi SSE 6.7 mph - -   Partly Cloudy
2:00 PM 46.4 °F 45.2 °F 37.4 °F 71% 30.36 in 6.2 mi SE 3.5 mph - N/A   Scattered Clouds
2:30 PM 46.4 °F 44.3 °F 37.4 °F 71% 30.36 in 6.2 mi South 4.6 mph - N/A   Scattered Clouds
3:00 PM 46 °F - 37 °F 62% 30.40 in 9 mi SSW 2.2 mph - -   Scattered Clouds
3:00 PM 46.4 °F 44.3 °F 37.4 °F 71% 30.36 in 6.2 mi SE 4.6 mph - N/A   Partly Cloudy
3:30 PM 44.6 °F - 37.4 °F 76% 30.36 in 6.2 mi Variable 2.3 mph - N/A   Partly Cloudy
4:00 PM 45 °F - 36 °F 63% 30.39 in 9 mi East 2.2 mph - -   Scattered Clouds
4:00 PM 44.6 °F 42.2 °F 37.4 °F 76% 30.36 in 6.2 mi East 4.6 mph - N/A   Partly Cloudy
4:30 PM 42.8 °F 40.1 °F 35.6 °F 76% 30.33 in 6.2 mi ENE 4.6 mph - N/A   Partly Cloudy
5:00 PM 43 °F - 36 °F 69% 30.40 in 8 mi ENE 4.5 mph - -   Mostly Cloudy
5:00 PM 42.8 °F 39.3 °F 35.6 °F 76% 30.36 in 6.2 mi NE 5.8 mph - N/A   Mostly Cloudy
5:30 PM 44.6 °F 42.2 °F 37.4 °F 76% 30.36 in 6.2 mi NE 4.6 mph - N/A   Mostly Cloudy
6:00 PM 44 °F - 38 °F 73% 30.40 in 8 mi ENE 6.7 mph - -   Mostly Cloudy
6:00 PM 44.6 °F 41.4 °F 39.2 °F 81% 30.36 in 6.2 mi NE 5.8 mph - N/A   Mostly Cloudy
6:30 PM 42.8 °F 41.1 °F 39.2 °F 87% 30.36 in 6.2 mi NE 3.5 mph - N/A   Overcast
7:00 PM 43 °F - 38 °F 77% 30.40 in 8 mi SSE 4.5 mph - -   Overcast
7:00 PM 42.8 °F 40.1 °F 37.4 °F 81% 30.36 in 6.2 mi SSE 4.6 mph - N/A   Overcast
7:30 PM 42.8 °F 38.6 °F 37.4 °F 81% 30.36 in 6.2 mi South 6.9 mph - N/A   Mostly Cloudy
8:00 PM 42 °F - 37 °F 76% 30.40 in 9 mi South 6.7 mph - -   Mostly Cloudy
8:00 PM 41.0 °F 37.1 °F 37.4 °F 87% 30.36 in 6.2 mi South 5.8 mph - N/A   Mostly Cloudy
8:30 PM 41.0 °F 37.1 °F 37.4 °F 87% 30.36 in 6.2 mi South 5.8 mph - N/A   Mostly Cloudy
9:00 PM 41 °F - 37 °F 79% 30.40 in 7 mi South 6.7 mph - -   Mostly Cloudy
9:00 PM 41.0 °F 37.1 °F 37.4 °F 87% 30.36 in 6.2 mi South 5.8 mph - N/A   Mostly Cloudy
9:30 PM 39.2 °F 35.9 °F 35.6 °F 87% 30.36 in 6.2 mi SSE 4.6 mph - N/A   Partly Cloudy
9:49 PM 39.2 °F 35.9 °F 35.6 °F 87% 30.36 in 6.2 mi South 4.6 mph - N/A   Mostly Cloudy
10:00 PM 39 °F - 37 °F 89% 30.40 in 6 mi SSE 4.5 mph - -   Mostly Cloudy
10:00 PM 39.2 °F 37.0 °F 37.4 °F 93% 30.33 in 6.2 mi SE 3.5 mph - N/A   Mostly Cloudy
10:30 PM 41.0 °F 38.0 °F 37.4 °F 87% 30.33 in 6.2 mi ESE 4.6 mph - N/A   Mostly Cloudy
11:00 PM 40 °F - 38 °F 88% 30.39 in 6 mi ESE 4.5 mph - -   Mostly Cloudy
11:00 PM 41.0 °F 37.1 °F 37.4 °F 87% 30.33 in 6.2 mi East 5.8 mph - N/A   Mostly Cloudy
11:30 PM 41.0 °F 39.0 °F 37.4 °F 87% 30.33 in 6.2 mi ESE 3.5 mph - N/A   Mostly Cloudy